Time,TemperatureF,DewpointF,PressureIn,WindDirection,WindDirectionDegrees,WindSpeedMPH,WindSpeedGustMPH,Humidity,HourlyPrecipIn,Conditions,Clouds,dailyrainin,SoftwareType,DateUTC
2013-10-23 00:00:00,37.0,24.0,-100.00,North,-999,-999.0,-999.0,59,-99.99,,,-99.99,,2013-10-23 07:00:00,
2013-10-23 00:12:00,38.0,24.0,-100.00,North,-999,-999.0,-999.0,56,-99.99,,,-99.99,,2013-10-23 07:12:00,
2013-10-23 00:22:00,37.0,24.0,-100.00,North,-999,-999.0,-999.0,59,-99.99,,,-99.99,,2013-10-23 07:22:00,
2013-10-23 00:32:00,37.0,24.0,-100.00,North,-999,-999.0,-999.0,59,-99.99,,,-99.99,,2013-10-23 07:32:00,
2013-10-23 00:42:00,37.0,24.0,-100.00,North,-999,-999.0,-999.0,59,-99.99,,,-99.99,,2013-10-23 07:42:00,
2013-10-23 00:52:00,37.0,24.0,-100.00,North,-999,-999.0,-999.0,59,-99.99,,,-99.99,,2013-10-23 07:52:00,
2013-10-23 03:43:00,33.0,27.0,-100.00,North,-999,-999.0,-999.0,77,-99.99,,,-99.99,,2013-10-23 10:43:00,
2013-10-23 03:53:00,33.0,27.0,-100.00,North,-999,-999.0,-999.0,77,-99.99,,,-99.99,,2013-10-23 10:53:00,
2013-10-23 05:20:00,33.0,22.0,-100.00,North,-999,-999.0,-999.0,64,-99.99,,,-99.99,,2013-10-23 12:20:00,
2013-10-23 05:52:00,33.0,22.0,-100.00,North,-999,-999.0,-999.0,64,-99.99,,,-99.99,,2013-10-23 12:52:00,
2013-10-23 06:01:00,33.0,22.0,-100.00,North,-999,-999.0,-999.0,64,-99.99,,,-99.99,,2013-10-23 13:01:00,
2013-10-23 06:12:00,33.0,22.0,-100.00,North,-999,-999.0,-999.0,64,-99.99,,,-99.99,,2013-10-23 13:12:00,
2013-10-23 07:11:00,34.0,24.0,-100.00,North,-999,-999.0,-999.0,67,-99.99,,,-99.99,,2013-10-23 14:11:00,
2013-10-23 07:22:00,34.0,24.0,-100.00,North,-999,-999.0,-999.0,66,-99.99,,,-99.99,,2013-10-23 14:22:00,
2013-10-23 07:32:00,34.0,24.0,-100.00,North,-999,-999.0,-999.0,66,-99.99,,,-99.99,,2013-10-23 14:32:00,
2013-10-23 07:52:00,32.0,23.0,-100.00,North,-999,-999.0,-999.0,69,-99.99,,,-99.99,,2013-10-23 14:52:00,
2013-10-23 08:01:00,32.0,23.0,-100.00,North,-999,-999.0,-999.0,69,-99.99,,,-99.99,,2013-10-23 15:01:00,
2013-10-23 08:11:00,32.0,23.0,-100.00,North,-999,-999.0,-999.0,69,-99.99,,,-99.99,,2013-10-23 15:11:00,
2013-10-23 15:24:00,65.0,-99.9,-100.00,North,-999,-999.0,-999.0,48,-99.99,,,-99.99,,2013-10-23 22:24:00,
2013-10-23 16:12:00,68.0,30.0,-100.00,West,260,2.0,-999.0,24,-99.99,,,-99.99,,2013-10-23 23:12:00,
2013-10-23 16:53:00,-999.0,-99.9,-100.00,West,260,1.0,-999.0,-999,-99.99,,,-99.99,,2013-10-23 23:53:00,
2013-10-23 17:00:00,59.0,-99.9,-100.00,North,-999,-999.0,-999.0,69,-99.99,,,-99.99,,2013-10-24 00:00:00,
2013-10-23 20:35:00,46.0,26.0,-100.00,North,-999,-999.0,-999.0,45,-99.99,,,-99.99,,2013-10-24 03:35:00,
2013-10-23 21:14:00,46.0,26.0,-100.00,North,-999,-999.0,-999.0,45,-99.99,,,-99.99,,2013-10-24 04:14:00,
2013-10-23 21:24:00,46.0,26.0,-100.00,North,-999,-999.0,-999.0,45,-99.99,,,-99.99,,2013-10-24 04:24:00,
2013-10-23 22:13:00,41.0,25.0,-100.00,North,-999,-999.0,-999.0,53,-99.99,,,-99.99,,2013-10-24 05:13:00,
2013-10-23 22:22:00,41.0,25.0,-100.00,North,-999,-999.0,-999.0,53,-99.99,,,-99.99,,2013-10-24 05:22:00,
2013-10-23 22:33:00,41.0,25.0,-100.00,North,-999,-999.0,-999.0,53,-99.99,,,-99.99,,2013-10-24 05:33:00,
2013-10-23 23:21:00,38.0,24.0,-100.00,North,-999,-999.0,-999.0,57,-99.99,,,-99.99,,2013-10-24 06:21:00,
2013-10-23 23:32:00,38.0,24.0,-100.00,North,-999,-999.0,-999.0,57,-99.99,,,-99.99,,2013-10-24 06:32:00,
2013-10-23 23:52:00,38.0,23.0,-100.00,North,-999,-999.0,-999.0,54,-99.99,,,-99.99,,2013-10-24 06:52:00,